Monterey, CA

9:18 AM PDT on March 25, 2017 (GMT -0700)
Monterey Peninsula

Weather History for KMRY - November, 2012

Change the Weather History Date:

Tuesday, November 13, 2012

  Actual Average Record
Temperature  
Mean Temperature 56 °F 55 °F  
Max Temperature 74 °F 64 °F 75 °F (2007)
Min Temperature 37 °F 46 °F 34 °F (2000)
Degree Days  
Heating Degree Days 9    
Month to date heating degree days 112  
Since 1 July heating degree days 787  
Cooling Degree Days 0    
Month to date cooling degree days 10  
Year to date cooling degree days 36  
Growing Degree Days 5 (Base 50)    
Moisture  
Dew Point 36 °F    
Average Humidity 51    
Maximum Humidity 82    
Minimum Humidity 19    
Precipitation  
Precipitation 0.00 in - 0.43 in (1950)
Month to date precipitation 0.70  
Year to date precipitation 9.03  
Since 1 July precipitation 1.38  
Sea Level Pressure  
Sea Level Pressure 30.17 in    
Wind  
Wind Speed 2 mph (ENE)    
Max Wind Speed 10 mph    
Max Gust Speed 12 mph    
Visibility 10 miles    
Events      
T = Trace of Precipitation, MM = Missing Value Source: NWS Daily Summary

Daily Weather History Graph

Daily Weather History Graph

Search for Another Location

Airport or City:

Trip Planner

Search our weather history database for the weather conditions in past years. The results will help you decide how hot, cold, wet, or windy it might be!

Date:

Astronomy

Nov. 13, 2012 Rise Set
Actual Time 6:43 AM PST 4:59 PM PST
Civil Twilight 6:16 AM PST 5:26 PM PST
Nautical Twilight 5:45 AM PST 5:58 PM PST
Astronomical Twilight 5:14 AM PST 6:28 PM PST
Moon 6:27 AM PST (11/13) 4:58 PM PST (11/13)
Length of Visible Light 11h 10m
Length of Day
10h 15m
Waning Crescent, 0% of the Moon is Illuminated
Nov 13
Waning Crescent
Nov 13
New
Nov 20
First Quarter
Nov 28
Full
Dec 6
Last Quarter

Hourly Weather History & Observations

Time (PST) Temp. Windchill Dew Point Humidity Pressure Visibility Wind Dir Wind Speed Gust Speed Precip Events Conditions
12:54 AM 45.0 °F 43.5 °F 35.1 °F 68% 30.26 in 10.0 mi ESE 3.5 mph - N/A   Clear
1:54 AM 44.1 °F - 35.1 °F 71% 30.25 in 10.0 mi Calm Calm - N/A   Clear
2:54 AM 41.0 °F - 33.1 °F 73% 30.25 in 10.0 mi Calm Calm - N/A   Clear
3:54 AM 39.9 °F - 33.1 °F 77% 30.25 in 10.0 mi Calm Calm - N/A   Clear
4:54 AM 37.0 °F - 30.9 °F 79% 30.24 in 10.0 mi Calm Calm - N/A   Clear
5:54 AM 37.0 °F - 32.0 °F 82% 30.24 in 10.0 mi Calm Calm - N/A   Clear
6:54 AM 37.0 °F - 32.0 °F 82% 30.24 in 10.0 mi Calm Calm - N/A   Clear
7:54 AM 42.1 °F - 33.1 °F 70% 30.24 in 10.0 mi Calm Calm - N/A   Clear
8:54 AM 46.9 °F - 33.1 °F 59% 30.23 in 10.0 mi Calm Calm - N/A   Clear
9:54 AM 55.0 °F - 34.0 °F 45% 30.22 in 10.0 mi Calm Calm - N/A   Clear
10:54 AM 62.1 °F - 36.0 °F 38% 30.19 in 10.0 mi West 4.6 mph - N/A   Clear
11:54 AM 66.9 °F - 34.0 °F 30% 30.16 in 10.0 mi West 4.6 mph - N/A   Clear
12:54 PM 73.0 °F - 30.9 °F 21% 30.13 in 10.0 mi Variable 4.6 mph - N/A   Clear
1:54 PM 73.0 °F - 28.9 °F 20% 30.12 in 10.0 mi West 5.8 mph - N/A   Clear
2:54 PM 63.0 °F - 44.1 °F 50% 30.12 in 10.0 mi WNW 5.8 mph - N/A   Clear
3:54 PM 61.0 °F - 46.9 °F 60% 30.12 in 10.0 mi NW 4.6 mph - N/A   Clear
4:54 PM 61.0 °F - 43.0 °F 52% 30.11 in 10.0 mi Calm Calm - N/A   Clear
5:54 PM 55.9 °F - 39.0 °F 53% 30.10 in 10.0 mi East 4.6 mph - N/A   Clear
6:54 PM 53.1 °F - 37.9 °F 57% 30.10 in 10.0 mi East 4.6 mph - N/A   Clear
7:54 PM 52.0 °F - 37.9 °F 59% 30.10 in 10.0 mi East 4.6 mph - N/A   Clear
8:54 PM 50.0 °F - 37.9 °F 63% 30.10 in 10.0 mi ENE 5.8 mph - N/A   Clear
9:54 PM 48.9 °F - 37.0 °F 64% 30.12 in 10.0 mi Calm Calm - N/A   Clear
10:54 PM 48.0 °F - 36.0 °F 63% 30.11 in 10.0 mi Calm Calm - N/A   Clear
11:54 PM 46.9 °F - 36.0 °F 66% 30.11 in 10.0 mi SE 3.5 mph - N/A   Clear